This demonstration page uses our WeatherBlox Daily Observations layout. Learn more.

Left ArrowRight Arrow

47.50024, -111.30081

Hourly Observations for November 28, 2015

Temp ( °F °C ) Dew Point ( °F °C ) Humidity (%) Winds ( mph kmh ) Pressure ( in mb ) Visibility ( mi km ) Precip ( " mm )
12:53 am 00:53 Clear 14 -10 4 -15.6 64 64 SW 16 26 30.48 1032 10 16 0.00 0.00
1:53 am 01:53 Clear 6 -14.4 0 -17.8 76 76 WSW 12 19 30.50 1033 10 16 0.00 0.00
2:53 am 02:53 Clear 13 -10.6 3 -16.1 64 64 SSW 14 22 30.48 1032 10 16 0.00 0.00
3:53 am 03:53 Clear 13 -10.6 5 -15 70 70 SW 15 24 30.48 1032 10 16 0.00 0.00
4:53 am 04:53 Clear 11 -11.7 2 -16.7 67 67 SSW 15 24 30.50 1033 10 16 0.00 0.00
5:53 am 05:53 Clear 13 -10.6 4 -15.6 67 67 SW 16 26 30.50 1033 10 16 0.00 0.00
6:53 am 06:53 Clear 12 -11.1 3 -16.1 67 67 SW 12 19 30.50 1033 10 16 0.00 0.00
7:53 am 07:53 Sunny 11 -11.7 2 -16.7 67 67 SW 12 19 30.49 1032 10 16 0.00 0.00
8:53 am 08:53 Sunny 11 -11.7 2 -16.7 67 67 SW 8 13 30.51 1033 10 16 0.00 0.00
9:53 am 09:53 Sunny 15 -9.4 5 -15 64 64 SW 12 19 30.49 1033 10 16 0.00 0.00
10:53 am 10:53 Sunny 17 -8.3 7 -13.9 64 64 SW 14 22 30.51 1033 10 16 0.00 0.00
11:53 am 11:53 Sunny 20 -6.7 9 -12.8 62 62 SW 15 24 30.45 1031 10 16 0.00 0.00
12:53 pm 12:53 Sunny 21 -6.1 11 -11.7 65 65 SW 14 22 30.43 1031 10 16 0.00 0.00
1:53 pm 13:53 Sunny 22 -5.6 11 -11.7 63 63 WSW 7 11 30.44 1031 10 16 0.00 0.00
2:53 pm 14:53 Sunny 22 -5.6 11 -11.7 63 63 SSW 9 15 30.41 1030 10 16 0.00 0.00
3:53 pm 15:53 Sunny 20 -6.7 10 -12.2 65 65 SSW 7 11 30.41 1030 10 16 0.00 0.00
4:53 pm 16:53 Clear 15 -9.4 6 -14.4 67 67 SW 9 15 30.42 1030 10 16 0.00 0.00
5:53 pm 17:53 Clear 14 -10 7 -13.9 73 73 SW 9 15 30.41 1030 10 16 0.00 0.00
6:53 pm 18:53 Clear 12 -11.1 5 -15 73 73 SW 9 15 30.42 1030 10 16 0.00 0.00
7:53 pm 19:53 Clear 8 -13.3 3 -16.1 80 80 WSW 9 15 30.42 1030 10 16 0.00 0.00
8:53 pm 20:53 Clear 14 -10 7 -13.9 73 73 SSW 12 19 30.41 1030 10 16 0.00 0.00
9:53 pm 21:53 Clear 14 -10 6 -14.4 71 71 SSW 13 20 30.40 1030 10 16 0.00 0.00
10:53 pm 22:53 Clear 12 -11.1 6 -14.4 77 77 SW 10 17 30.40 1029 10 16 0.00 0.00
11:53 pm 23:53 Clear 8 -13.3 4 -15.6 83 83 WSW 10 17 30.41 1030 10 16 0.00 0.00

Powered by AerisWeather